Find Raduga-1

NORAD ID: 28194 Int'l Des: 2004-010 Owner: KVR Country: RU operational
HEOCIRCULAR

Live-Position

3D-Globus wird geladen...

Über Raduga-1

Beschreibung wird geladen...

Nächste Überflüge

Passes for default location (London). Set your location on the main map for personalized predictions.

Höhenverlauf

Loading altitude history...

Zweizeiliger Elementsatz

1 28194U 04010A 26106.87708534 .00000125 00000-0 00000-0 0 9994
2 28194 13.6078 21.2521 0004636 247.5427 296.3625 1.00187909 80808
Epoch: 16. Apr. 2026 • Age: 11 hours

Aktueller Status

Höhe 35812.7 km
Geschwindigkeit 3.07 km/s
Subsatellitenpunkt -3.52°S, 44.71°E
Startdatum 27. März 2004
Alter 22 years
Typ other

Technische Details

Klassifizierung Payload
Masse 2500.00 kg
Trockenmasse 2200.00 kg
Gesamtmasse 2500.00 kg
Länge 5.00 m
Durchmesser 2.00 m
Spannweite 20.00 m
Form Step Cyl + 2 Pan
Hersteller NPOPMR
Bus-Typ Globus
Phasenstatus In Orbit
Besitzer/Staat KVR/RU

Most Searched